Regional Weather Roundup
Issued by NWS

Home | Current Version | Previous Version | Text Only | Print | Product List | Glossary On
Versions: 1 2 3 4 5 6 7 8 9 10 11 12 13 14 15 16 17 18 19 20 21 22 23 24 25 26 27 28 29 30 31 32 33 34 35 36 37 38 39 40 41 42 43 44 45 46 47 48 49 50
000
ASUS43 KOAX 082310
RWRNE

WEATHER ROUNDUP FOR NEBRASKA
NATIONAL WEATHER SERVICE OMAHA NE
500 PM CST MON FEB 08 2016

NOTES: SATELLITE DATA IS BEING USED TO AUGMENT CLOUD COVER ABOVE
       12000 FEET.
       "FAIR" INDICATES FEW OR NO CLOUDS BELOW 12,000 FEET WITH NO
       SIGNIFICANT WEATHER AND/OR OBSTRUCTIONS TO VISIBILITY.

  * THESE STATIONS DO NOT REPORT WEATHER SUCH AS RAIN...SNOW OR FOG.

NEZ001>004-019>022-054>056-090000-
NEBRASKA PANHANDLE

CITY           SKY/WX    TMP DP  RH WIND       PRES   REMARKS
SCOTTSBLUFF    CLOUDY    41  28  60 NW12      30.29F
ALLIANCE       CLOUDY    36  24  62 NW8       30.25F WCI  30
CHADRON        CLOUDY    41  23  48 W10       30.27F
KIMBALL        CLOUDY    39  28  65 NW10      30.29F WCI  32
SIDNEY         CLOUDY    39  27  62 NW15      30.27F WCI  31
$$

NEZ057>060-069>072-079>082-090000-
SOUTHWEST NEBRASKA

CITY           SKY/WX    TMP DP  RH WIND       PRES   REMARKS
NORTH PLATTE   CLOUDY    35  16  45 NW14      30.25S WCI  26
IMPERIAL       CLOUDY    36  19  50 NW17      30.27F WCI  26
LEXINGTON      CLOUDY    36  16  44 NW16      30.22S WCI  26
MCCOOK         SUNNY     36  19  50 NW15      30.27S WCI  27
OGALLALA       CLOUDY    37  19  48 NW12      30.27S WCI  29
$$

NEZ005>010-023>029-035>040-094-090000-
NORTH CENTRAL NEBRASKA

CITY           SKY/WX    TMP DP  RH WIND       PRES   REMARKS
VALENTINE      CLOUDY    35  16  45 NW17G24   30.23S WCI  25
AINSWORTH      CLEAR     35  13  40 NW30G36   30.20F WCI  22
BROKEN BOW     CLEAR     35  13  40 N26G35    30.19S WCI  22
O`NEILL        PTCLDY    33  19  57 NW29      30.18S WCI  19
ORD            CLEAR     33  17  51 NW22G35   30.18R WCI  21
THEDFORD       MOSUNNY   38  11  33 NW23G29   30.23R WCI  27
$$

NEZ041-046>049-061>064-073>077-083>087-090000-
SOUTH CENTRAL NEBRASKA

CITY           SKY/WX    TMP DP  RH WIND       PRES   REMARKS
GRAND ISLAND   CLOUDY    35  17  47 NW23G31   30.18R WCI  23
AURORA         CLEAR     34  19  56 NW22G28   30.17S WCI  22
HASTINGS       CLEAR     35  18  49 NW18G26   30.18S WCI  24
HEBRON         CLEAR     35  22  59 NW12      30.17S WCI  27
HOLDREGE       CLOUDY    34  18  51 NW9G16    30.22R WCI  26
YORK           PTCLDY    32  21  64 N21G30    30.15R WCI  20
$$

NEZ011>018-030>034-042>045-090000-
NORTHEAST NEBRASKA

CITY           SKY/WX    TMP DP  RH WIND       PRES   REMARKS
NORFOLK        CLEAR     33  20  58 NW28G37   30.11R WCI  20
ALBION         PTCLDY    32  19  58 NW23G30   30.14R WCI  20
BLAIR          CLEAR     29  19  67 NW16G25   30.09S WCI  17
COLUMBUS *     CLEAR     34  14  44 NW28G38   30.12R WCI  20
FREMONT        CLEAR     30  18  61 N9        30.12S WCI  22
TEKAMAH        CLEAR     30  18  60 NW22G30   30.10S WCI  17
WAYNE          CLOUDY    31  19  62 NW20G29   30.11S WCI  19
$$

NEZ050>053-065>068-078-088>093-090000-
SOUTHEAST NEBRASKA

CITY           SKY/WX    TMP DP  RH WIND       PRES   REMARKS
LINCOLN        CLEAR     34  20  56 N20G29    30.14R WCI  23
OMAHA EPPLEY   PTCLDY    28  18  66 N23G32    30.10R WCI  14
BEATRICE       CLEAR     35  21  57 N23       30.13F WCI  22
FALLS CITY     MOCLDY    33  17  51 NW18G31   30.11R WCI  22
NEBRASKA CITY  PTCLDY    31  19  61 N18       30.10S WCI  19
PLATTSMOUTH    MOCLDY    29  19  64 NW17G28   30.10R WCI  17
$$

NEZ044-045-051>053-067-090000-
OMAHA AREA

CITY           SKY/WX    TMP DP  RH WIND       PRES   REMARKS
OMAHA EPPLEY   PTCLDY    28  18  66 N23G32    30.10R WCI  14
BLAIR          CLEAR     29  19  67 NW16G25   30.09S WCI  17
FREMONT        CLEAR     30  18  61 N9        30.12S WCI  22
MILLARD        CLEAR     31  19  62 NW16G25   30.11S WCI  20
OFFUTT AFB     PTCLDY    30  17  59 NW21G28   30.10R WCI  17
PLATTSMOUTH    MOCLDY    29  19  64 NW17G28   30.10R WCI  17
WAHOO          FAIR      31  20  63 NW17      30.12R WCI  20
$$



USA.gov is the U.S. government's official web portal to all federal, state and local government web resources and services.